Regional Weather Roundup
Issued by NWS

Home | Current Version | Previous Version | Graphics & Text | Print | Product List | Glossary On
Versions: 1 2 3 4 5 6 7 8 9 10 11 12 13 14 15 16 17 18 19 20 21 22 23 24 25 26 27 28 29 30 31 32 33 34 35 36 37 38 39 40 41 42 43 44 45 46 47 48 49 50
732
ASUS43 KIND 081009
RWRIN

WEATHER ROUNDUP FOR INDIANA
NATIONAL WEATHER SERVICE INDIANAPOLIS IN
500 AM EST THU DEC 08 2016

NOTE: "FAIR" INDICATES FEW OR NO CLOUDS BELOW 12,000 FEET WITH NO
SIGNIFICANT WEATHER AND/OR OBSTRUCTIONS TO VISIBILITY.

* - STATION DOES NOT REPORT WEATHER SUCH AS PRECIPITATION OR FOG.

+ - STATION NOT QUALITY CONTROLLED BY THE NATIONAL WEATHER SERVICE.
    USE DATA WITH CAUTION...ESPECIALLY DEWPOINT AND RELATIVE
    HUMIDITY OBSERVATIONS.

INZ001>003-010>013-019-020-081100-
NORTHWEST INDIANA

CITY           SKY/WX    TMP DP  RH WIND       PRES   REMARKS
KNOX *+        CLOUDY    23  -2  33 W18G30    30.17S WCI   9
LA PORTE +     CLOUDY    23  14  70 W13G18    30.15S WCI  11
MICHIGAN CITY+ FLURRIES  25  18  74 SW10G17   30.15S WCI  15
MONTICELLO +   CLOUDY    24  13  64 W12G21    30.19F WCI  13
RENSSELAER +     N/A     25  18  74 W17G24    30.20S WCI  11
VALPARAISO     FLURRIES  23  15  71 W18G24    30.16F WCI   9

$$

LMZ046-743>745-081100-
SOUTHERN LAKE MICHIGAN

STATION/POSITION TIME  TEMP    WIND        PRES    WAVE
                       AIR SEA DIR/SP/G            HT
                 (UTC) (F)     (DEG/KT/KT) (MB)    (FT)
BURNS HARBOR     0940   26     260/ 24/ 29 1021.3F
MICHIGAN CITY    0940   25     230/ 25/ 31   N/A

$$

INZ004-005-014>016-021>024-081100-
NORTH CENTRAL INDIANA

CITY           SKY/WX    TMP DP  RH WIND       PRES   REMARKS
GOSHEN         FLURRIES  24  14  65 W21       30.12S WCI   9
LOGANSPORT +   CLOUDY    23  16  74 W16G24    30.20S WCI  10
PERU/GRISSOM   CLOUDY    23  16  74 W20       30.15F WCI   8
ROCHESTER +    MOCLDY    27  19  74 W14G20    30.16S WCI  15
SOUTH BEND     CLOUDY    22  16  78 W15       30.12F WCI   9
WARSAW +       CLOUDY    23  12  63 W18G24    30.14S WCI   9

$$

INZ006>009-017-018-025>027-081100-
NORTHEAST INDIANA

CITY           SKY/WX    TMP DP  RH WIND       PRES   REMARKS
ANGOLA *+      CLOUDY    23  18  80 W12       30.07S WCI  12
AUBURN +       FLURRIES  25  16  68 W13G21    30.11F WCI  13
FORT WAYNE     CLOUDY    24  16  71 W18       30.13F WCI  10
HUNTINGTON +   CLOUDY    24  16  71 W13       30.15S WCI  12
KENDALLVILLE + CLOUDY    23  16  75 W15G22    30.09F WCI  10

$$

INZ028-029-035-036-043>045-051>053-081100-
WEST CENTRAL INDIANA

CITY           SKY/WX    TMP DP  RH WIND       PRES   REMARKS
CRAWFORDSVL +  CLOUDY    22  16  80 W10G20    30.23S WCI  11
GREENCASTLE +  PTCLDY    23  16  74 W10G17    30.25R WCI  12
LAFAYETTE      CLOUDY    23  15  71 W18       30.22F WCI   9
TERRE HAUTE    CLEAR     23  14  68 NW9       30.29S WCI  13

$$

INZ030>032-037>040-046>048-054>057-064-065-081100-
CENTRAL INDIANA

CITY           SKY/WX    TMP DP  RH WIND       PRES   REMARKS
CP ATTERBURY + CLEAR     27  18  69 NW10G16   30.24R WCI  17
FISHERS *+     CLOUDY    23  19  86 NW12G20   30.21R WCI  12
FRANKFORT +    CLOUDY    26  18  72 W20G29    30.22S WCI  12
GREENWOOD *+   PTCLDY    26  16  66 W16G25    30.22S WCI  13
INDIANAPOLIS   MOCLDY    24  15  68 W16       30.22S WCI  11
-EAGLE CREEK   CLOUDY    25  15  66 W17G23    30.21R WCI  12
KOKOMO +       FLURRIES  24  17  74 W21       30.18S WCI   9
MARION +       CLOUDY    23  17  77 W20G28    30.18S WCI   9
MT COMFORT *+  CLOUDY    25  18  74 W15G21    30.20R WCI  12
SHELBYVILLE    CLEAR     26  15  63 W12       30.21R WCI  16
ZIONSVILLE +   CLOUDY    23  16  74 W12G21    30.21R WCI  12

$$

INZ033-034-041-042-049-050-058-059-081100-
EAST CENTRAL INDIANA

CITY           SKY/WX    TMP DP  RH WIND       PRES   REMARKS
MUNCIE         CLOUDY    25  16  68 W15G26    30.17S WCI  13

$$

INZ060-061-067>069-081>083-085>088-081100-
SOUTHWEST INDIANA

CITY           SKY/WX    TMP DP  RH WIND       PRES   REMARKS
EVANSVILLE     MOCLDY    30  18  60 NW12      30.34R WCI  20
HUNTINGBURG *+ CLOUDY    28  19  69 NW7       30.31R WCI  21
WASHINGTON +   PTCLDY    28  21  74 NW13      30.30R WCI  18

$$

INZ062-063-066-070>080-084-089>092-081100-
SOUTH CENTRAL AND SOUTHEAST INDIANA

CITY           SKY/WX    TMP DP  RH WIND       PRES   REMARKS
BLOOMINGTON    MOCLDY    26  15  63 NW12G22   30.25R WCI  16
MADISON *+     PTCLDY    30  18  59 W6        30.24R WCI  24
NORTH VERNON + MOCLDY    30  25  80 W7        30.23R WCI  23
SEYMOUR +      CLOUDY    30  18  59 W7        30.25  WCI  23

$$





USA.gov is the U.S. government's official web portal to all federal, state and local government web resources and services.